This demonstration page uses our WeatherBlox Daily Observations layout. Learn more.

Left ArrowRight Arrow

Hourly Observations for June 23, 2022

Temp ( °F °C ) Dew Point ( °F °C ) Humidity (%) Winds ( mph kmh ) Pressure ( in mb ) Visibility ( mi km ) Precip ( " mm )
12:15 am 00:15 Clear 68 20.2 65 18.2 88 88 S 6 9 30.02 1016 10 16 0.00 0.00
12:35 am 00:35 Clear 69 20.5 65 18.5 88 88 SE 5 7 30.00 1016 10 16 0.00 0.00
12:55 am 00:55 Clear 68 20.2 65 18.6 91 91 SE 6 9 30.01 1016 10 16 0.00 0.00
1:15 am 01:15 Partly Cloudy 69 20.4 66 19.1 92 92 SSE 6 9 30.00 1016 10 16 0.00 0.00
1:35 am 01:35 Partly Cloudy 69 20.6 67 19.5 93 93 SSE 7 11 30.00 1016 10 16 0.00 0.00
1:55 am 01:55 Clear 69 20.7 68 19.8 95 95 SSE 7 11 29.99 1016 10 16 0.00 0.00
2:15 am 02:15 Clear 69 20.8 68 20 95 95 SSE 7 11 29.98 1015 7 11 0.00 0.00
2:35 am 02:35 Clear 69 20.7 68 20 96 96 SSE 6 9 29.98 1015 7 11 0.00 0.00
2:55 am 02:55 Clear 69 20.6 68 20 96 96 SSE 3 6 29.98 1015 7 11 0.00 0.00
3:15 am 03:15 Partly Cloudy with Mist and Fog 69 20.5 68 19.9 96 96 Calm 29.98 1015 5 8 0.00 0.00
3:35 am 03:35 Mostly Cloudy with Mist and Fog 68 20.2 67 19.6 96 96 SE 5 7 29.98 1015 5 8 0.00 0.00
3:55 am 03:55 Cloudy with Mist and Fog 69 20.3 67 19.7 96 96 SSE 3 6 29.97 1015 5 8 0.00 0.00
4:15 am 04:15 Partly Cloudy with Mist and Fog 68 20.1 67 19.5 96 96 SSE 5 7 29.97 1015 5 8 0.00 0.00
4:35 am 04:35 Clear with Mist and Fog 67 19.5 66 19.1 98 98 SSE 5 7 29.96 1015 3 5 0.00 0.00
4:55 am 04:55 Clear with Mist and Fog 67 19.2 66 18.9 98 98 SE 7 11 29.96 1015 3 5 0.00 0.00
5:15 am 05:15 Partly Cloudy with Mist and Fog 66 19 66 18.7 98 98 SE 3 6 29.97 1015 3 4 0.00 0.00
5:35 am 05:35 Mostly Cloudy with Mist and Fog 66 19.1 66 18.9 99 99 SSE 5 7 29.96 1015 3 4 0.00 0.00
5:55 am 05:55 Cloudy with Mist and Fog 67 19.3 66 19 98 98 SSE 8 13 29.95 1014 3 4 0.00 0.00
6:15 am 06:15 Mostly Cloudy with Mist and Fog 67 19.5 66 19 97 97 SSE 8 13 29.94 1014 2 3 0.00 0.00
6:35 am 06:35 Partly Cloudy with Mist and Fog 67 19.7 66 19 96 96 SSE 7 11 29.94 1014 5 8 0.00 0.00
6:55 am 06:55 Cloudy 68 20 66 19 94 94 SSE 7 11 29.94 1014 7 11 0.00 0.00
7:15 am 07:15 Cloudy with Light Rain 69 20.5 66 18.8 90 90 S 6 9 29.93 1014 10 16 0.00 0.00
7:35 am 07:35 Cloudy with Light Rain 68 20.2 66 18.9 92 92 SSE 6 9 29.94 1014 10 16 0.00 0.00
7:55 am 07:55 Mostly Cloudy 68 20.2 66 19 93 93 SSE 9 15 29.94 1014 10 16 0.00 0.00
8:15 am 08:15 Mostly Cloudy 69 20.5 66 19.1 92 92 SSE 9 15 29.93 1014 10 16 0.00 0.00
8:35 am 08:35 Mostly Cloudy 71 21.4 67 19.4 88 88 SSE 14 22 29.93 1013 10 16 0.00 0.00
8:50 am 08:50 Partly Cloudy 71 21.6 67 19.4 87 87 SSE 14 22 29.92 1013 10 16 0.00 0.00
9:15 am 09:15 Partly Cloudy 72 22.1 67 19.3 84 84 SSE 15 24 29.92 1013 10 16 0.00 0.00
9:35 am 09:35 Mostly Cloudy 73 22.8 67 19.5 82 82 SE 13 20 29.90 1013 10 16 0.00 0.00
9:55 am 09:55 Partly Cloudy 74 23.3 67 19.5 79 79 SE 15 24 29.90 1013 10 16 0.00 0.00
10:15 am 10:15 Mostly Cloudy 75 23.8 67 19.6 77 77 SE 15 24 29.89 1012 10 16 0.00 0.00
10:35 am 10:35 Mostly Cloudy 76 24.3 68 20.1 77 77 SE 17 28 29.87 1012 10 16 0.00 0.00
10:55 am 10:55 Mostly Cloudy 77 24.9 68 20 74 74 SSE 15 24 29.86 1011 10 16 0.00 0.00
11:15 am 11:15 Cloudy 78 25.3 67 19.7 71 71 S 14 22 29.86 1011 10 16 0.00 0.00
11:35 am 11:35 Cloudy 80 26.8 67 19.3 64 64 S 18 30 29.84 1011 10 16 0.00 0.00
11:55 am 11:55 Mostly Cloudy 79 26.1 66 19 65 65 SSE 18 30 29.84 1010 10 16 0.00 0.00
12:15 pm 12:15 Mostly Cloudy 79 26.3 67 19.4 66 66 S 17 28 29.84 1010 10 16 0.00 0.00
12:35 pm 12:35 Mostly Cloudy 80 26.9 67 19.6 64 64 SSE 15 24 29.83 1010 10 16 0.00 0.00
12:55 pm 12:55 Mostly Cloudy 82 27.5 67 19.6 62 62 S 14 22 29.82 1010 10 16 0.00 0.00
1:15 pm 13:15 Mostly Cloudy 83 28.5 67 19.6 59 59 S 13 20 29.80 1009 10 16 0.00 0.00
1:35 pm 13:35 Mostly Cloudy 84 28.7 67 19.6 58 58 S 15 24 29.79 1009 10 16 0.00 0.00
1:55 pm 13:55 Partly Cloudy 83 28.4 67 19.6 59 59 S 15 24 29.78 1008 10 16 0.00 0.00
2:15 pm 14:15 Partly Cloudy 85 29.2 68 19.8 57 57 S 15 24 29.77 1008 10 16 0.00 0.00
2:35 pm 14:35 Sunny 85 29.3 67 19.6 56 56 S 18 30 29.76 1008 10 16 0.00 0.00
2:55 pm 14:55 Sunny 84 28.7 67 19.6 58 58 S 18 30 29.76 1008 10 16 0.00 0.00
3:15 pm 15:15 Sunny 83 28.4 68 20 60 60 SSE 17 28 29.76 1008 10 16 0.00 0.00
3:35 pm 15:35 Sunny 83 28.1 68 20.1 62 62 SSE 15 24 29.76 1008 10 16 0.00 0.00
3:55 pm 15:55 Sunny 82 28 68 20.2 63 63 SE 16 26 29.75 1008 10 16 0.00 0.00
4:15 pm 16:15 Sunny 82 27.7 68 20.1 63 63 SSE 15 24 29.75 1007 10 16 0.00 0.00
4:35 pm 16:35 Sunny 83 28.5 68 20.1 60 60 SSE 14 22 29.73 1007 10 16 0.00 0.00
4:55 pm 16:55 Sunny 84 29 69 20.6 61 61 SSE 15 24 29.72 1006 10 16 0.00 0.00
5:15 pm 17:15 Sunny 85 29.3 70 21 61 61 SSE 17 28 29.71 1006 10 16 0.00 0.00
5:35 pm 17:35 Sunny 85 29.5 71 21.4 62 62 SSE 16 26 29.70 1006 10 16 0.00 0.00
5:55 pm 17:55 Sunny 85 29.6 71 21.6 62 62 SE 18 30 29.70 1006 10 16 0.00 0.00
6:15 pm 18:15 Sunny 85 29.5 71 21.4 62 62 SE 15 24 29.69 1005 10 16 0.00 0.00
6:35 pm 18:35 Partly Cloudy 85 29.5 71 21.5 62 62 SE 17 28 29.69 1005 10 16 0.00 0.00
6:55 pm 18:55 Partly Cloudy 85 29.4 72 22 64 64 SE 20 31 29.70 1006 10 16 0.00 0.00
7:15 pm 19:15 Partly Cloudy 84 28.9 71 21.9 66 66 SSE 23 37 29.71 1006 10 16 0.00 0.00
7:35 pm 19:35 Partly Cloudy 82 28 71 21.6 68 68 SE 18 30 29.71 1006 10 16 0.00 0.00
7:55 pm 19:55 Sunny 82 27.5 71 21.7 71 71 SSE 18 30 29.72 1006 10 16 0.00 0.00
8:15 pm 20:15 Sunny 81 27 70 21.2 71 71 SSE 15 24 29.72 1006 10 16 0.00 0.00
8:35 pm 20:35 Sunny 80 26.4 69 20.6 71 71 SE 10 17 29.73 1007 10 16 0.00 0.00
8:55 pm 20:55 Sunny 78 25.5 68 19.9 71 71 SE 13 20 29.73 1007 10 16 0.00 0.00
9:15 pm 21:15 Clear 77 25 67 19.7 72 72 SSE 9 15 29.74 1007 10 16 0.00 0.00
9:35 pm 21:35 Clear 76 24.4 68 20 77 77 SE 7 11 29.74 1007 10 16 0.00 0.00
9:55 pm 21:55 Clear 75 24 67 19.4 76 76 SSE 9 15 29.75 1007 10 16 0.00 0.00
10:15 pm 22:15 Clear 74 23.1 65 18.3 74 74 SSE 10 17 29.77 1008 10 16 0.00 0.00
10:35 pm 22:35 Clear 73 22.5 65 18.2 77 77 SSE 12 19 29.79 1009 10 16 0.00 0.00
10:55 pm 22:55 Clear 72 22.2 65 18.5 80 80 SSE 12 19 29.79 1009 10 16 0.00 0.00
11:15 pm 23:15 Clear 72 22.1 65 18.6 81 81 SSE 14 22 29.79 1009 10 16 0.00 0.00
11:35 pm 23:35 Clear 72 22.1 65 18.5 80 80 SSE 12 19 29.77 1008 10 16 0.00 0.00
11:55 pm 23:55 Clear 72 22.2 65 18.5 80 80 SSE 7 11 29.77 1008 10 16 0.00 0.00

Powered by AerisWeather